| time (UTC) | temp F | wind direction | speed knots | gust knots | rain 1hr in | rain 24hr in | rain mn in | humidity % | barometer mb |
| 20260906214552 | 103 | 156 | 9.6 | 16.5 | 0.00 | 0.00 | 0.00 | 28 | 1011.9 |
| 20260906213055 | 103 | 156 | 3.5 | 15.6 | 0.00 | 0.00 | 0.00 | 27 | 1012.0 |
| 20260906211558 | 103 | 145 | 8.7 | 16.5 | 0.00 | 0.00 | 0.00 | 28 | 1012.1 |
| 20260906210051 | 102 | 163 | 7.0 | 15.6 | 0.00 | 0.00 | 0.00 | 29 | 1012.4 |
| 20260906204620 | 103 | 126 | 6.1 | 14.8 | 0.00 | 0.00 | 0.00 | 29 | 1012.5 |
| 20260906203054 | 102 | 155 | 13.0 | 16.5 | 0.00 | 0.00 | 0.00 | 30 | 1012.9 |
| 20260906201615 | 101 | 136 | 10.4 | 15.6 | 0.00 | 0.00 | 0.00 | 31 | 1013.1 |
| 20260906200052 | 102 | 146 | 9.6 | 15.6 | 0.00 | 0.00 | 0.00 | 29 | 1013.2 |
| 20260906194602 | 103 | 184 | 2.6 | 14.8 | 0.00 | 0.00 | 0.00 | 29 | 1013.4 |
| 20260906193054 | 102 | 0 | 3.5 | 14.8 | 0.00 | 0.00 | 0.00 | 30 | 1013.6 |
| 20260906191552 | 101 | 157 | 11.3 | 16.5 | 0.00 | 0.00 | 0.00 | 28 | 1013.8 |
| 20260906190051 | 99 | 116 | 10.4 | 14.8 | 0.00 | 0.00 | 0.00 | 32 | 1013.8 |
| 20260906184559 | 99 | 116 | 9.6 | 16.5 | 0.00 | 0.00 | 0.00 | 33 | 1014.0 |
| 20260906183101 | 100 | 153 | 7.8 | 14.8 | 0.00 | 0.00 | 0.00 | 34 | 1014.3 |
| 20260906181557 | 100 | 133 | 7.0 | 16.5 | 0.00 | 0.00 | 0.00 | 35 | 1014.4 |
| 20260906180049 | 100 | 117 | 5.2 | 11.3 | 0.00 | 0.00 | 0.00 | 34 | 1014.6 |
| 20260906174608 | 100 | 132 | 7.8 | 13.9 | 0.00 | 0.00 | 0.00 | 35 | 1014.9 |
| 20260906173055 | 99 | 119 | 11.3 | 15.6 | 0.00 | 0.00 | 0.00 | 35 | 1014.9 |
| 20260906171556 | 99 | 99 | 6.1 | 14.8 | 0.00 | 0.00 | 0.00 | 36 | 1015.2 |
| 20260906170100 | 99 | 0 | 0.9 | 13.9 | 0.00 | 0.00 | 0.00 | 37 | 1015.6 |
| 20260906164546 | 98 | 155 | 5.2 | 9.6 | 0.00 | 0.00 | 0.00 | 38 | 1015.8 |
| 20260906163055 | 97 | 140 | 0.9 | 9.6 | 0.00 | 0.00 | 0.00 | 39 | 1016.0 |
| 20260906161556 | 96 | 0 | 0.9 | 7.0 | 0.00 | 0.00 | 0.00 | 41 | 1016.1 |
| 20260906160049 | 96 | 84 | 0.0 | 3.5 | 0.00 | 0.00 | 0.00 | 42 | 1015.9 |
| 20260906154558 | 94 | 0 | 0.0 | 6.1 | 0.00 | 0.00 | 0.00 | 44 | 1016.0 |
| 20260906153112 | 93 | 0 | 0.0 | 0.9 | 0.00 | 0.00 | 0.00 | 45 | 1015.9 |
| 20260906151552 | 92 | 111 | 0.0 | 0.9 | 0.00 | 0.00 | 0.00 | 47 | 1015.8 |
| 20260906150050 | 90 | 0 | 0.0 | 0.0 | 0.00 | 0.00 | 0.00 | 49 | 1015.6 |
| 20260906144553 | 90 | 0 | 0.0 | 3.5 | 0.00 | 0.00 | 0.00 | 49 | 1015.7 |
| 20260906143056 | 89 | 0 | 0.0 | 0.0 | 0.00 | 0.00 | 0.00 | 51 | 1015.8 |
| 20260906141556 | 87 | 0 | 0.0 | 0.0 | 0.00 | 0.00 | 0.00 | 53 | 1015.8 |
| 20260906140056 | 85 | 0 | 0.0 | 0.0 | 0.00 | 0.00 | 0.00 | 57 | 1015.6 |
| 20260906134549 | 83 | 0 | 0.0 | 0.0 | 0.00 | 0.00 | 0.00 | 59 | 1015.5 |
| 20260906133100 | 82 | 0 | 0.0 | 0.0 | 0.00 | 0.00 | 0.00 | 61 | 1015.3 |
| 20260906131554 | 80 | 0 | 0.0 | 0.0 | 0.00 | 0.00 | 0.00 | 64 | 1015.3 |
| 20260906124548 | 77 | 0 | 0.0 | 4.3 | 0.00 | 0.00 | 0.00 | 67 | 1014.7 |
| 20260906123058 | 77 | 144 | 2.6 | 4.3 | 0.00 | 0.00 | 0.00 | 67 | 1014.6 |
| 20260906121603 | 77 | 157 | 2.6 | 6.1 | 0.00 | 0.00 | 0.00 | 67 | 1014.5 |
| 20260906120054 | 77 | 182 | 4.3 | 6.1 | 0.00 | 0.00 | 0.00 | 67 | 1014.2 |
| 20260906114549 | 77 | 172 | 3.5 | 6.1 | 0.00 | 0.00 | 0.00 | 66 | 1014.0 |
| 20260906113057 | 77 | 165 | 4.3 | 7.8 | 0.00 | 0.00 | 0.00 | 66 | 1014.0 |
| 20260906111619 | 77 | 192 | 3.5 | 5.2 | 0.00 | 0.00 | 0.00 | 65 | 1013.8 |
| 20260906110053 | 78 | 170 | 3.5 | 6.1 | 0.00 | 0.00 | 0.00 | 64 | 1013.8 |
| 20260906104551 | 78 | 195 | 4.3 | 7.0 | 0.00 | 0.00 | 0.00 | 64 | 1013.6 |
| 20260906103046 | 78 | 0 | 0.0 | 0.0 | 0.00 | 0.00 | 0.00 | 63 | 1013.5 |
| 20260906101557 | 78 | 0 | 0.0 | 0.0 | 0.00 | 0.00 | 0.00 | 63 | 1013.5 |
| 20260906100053 | 78 | 0 | 0.0 | 0.0 | 0.00 | 0.00 | 0.00 | 62 | 1013.4 |
| 20260906094547 | 79 | 0 | 0.0 | 0.0 | 0.00 | 0.00 | 0.00 | 60 | 1013.3 |
| 20260906093104 | 80 | 0 | 0.0 | 0.0 | 0.00 | 0.00 | 0.00 | 59 | 1013.3 |
| 20260906091553 | 80 | 211 | 2.6 | 5.2 | 0.00 | 0.00 | 0.00 | 58 | 1013.4 |
| 20260906090111 | 81 | 185 | 3.5 | 6.1 | 0.00 | 0.00 | 0.00 | 57 | 1013.5 |
| 20260906084611 | 81 | 0 | 0.0 | 0.0 | 0.00 | 0.00 | 0.00 | 56 | 1013.4 |
| 20260906083057 | 81 | 0 | 0.0 | 0.0 | 0.00 | 0.00 | 0.00 | 55 | 1013.2 |
| 20260906081600 | 82 | 0 | 0.0 | 0.0 | 0.00 | 0.00 | 0.00 | 54 | 1013.3 |
| 20260906080100 | 82 | 0 | 0.0 | 0.0 | 0.00 | 0.00 | 0.00 | 53 | 1013.2 |
| 20260906074603 | 83 | 0 | 0.0 | 0.0 | 0.00 | 0.00 | 0.00 | 52 | 1013.3 |
| 20260906073055 | 83 | 0 | 0.0 | 0.0 | 0.00 | 0.00 | 0.00 | 51 | 1013.3 |
| 20260906071557 | 84 | 195 | 3.5 | 6.1 | 0.00 | 0.00 | 0.00 | 51 | 1013.3 |
| 20260906070115 | 84 | 171 | 5.2 | 10.4 | 0.00 | 0.00 | 0.00 | 50 | 1013.1 |
| 20260906064552 | 84 | 165 | 4.3 | 7.8 | 0.00 | 0.00 | 0.00 | 50 | 1013.1 |
| 20260906063051 | 84 | 172 | 3.5 | 8.7 | 0.00 | 0.00 | 0.00 | 49 | 1013.0 |
| 20260906061632 | 85 | 139 | 3.5 | 8.7 | 0.00 | 0.00 | 0.00 | 49 | 1013.3 |
| 20260906060057 | 85 | 176 | 5.2 | 8.7 | 0.00 | 0.00 | 0.00 | 48 | 1013.3 |
| 20260906054553 | 86 | 190 | 4.3 | 8.7 | 0.00 | 0.00 | 0.00 | 47 | 1013.4 |
| 20260906053058 | 87 | 161 | 6.1 | 10.4 | 0.00 | 0.00 | 0.00 | 46 | 1013.5 |
| 20260906051554 | 88 | 165 | 8.7 | 13.0 | 0.00 | 0.00 | 0.00 | 45 | 1013.7 |
| 20260906050108 | 88 | 151 | 7.0 | 11.3 | 0.00 | 0.00 | 0.00 | 45 | 1013.7 |
| 20260906044550 | 88 | 171 | 6.1 | 11.3 | 0.00 | 0.00 | 0.00 | 44 | 1013.6 |
| 20260906043109 | 88 | 146 | 7.8 | 12.2 | 0.00 | 0.00 | 0.00 | 43 | 1013.7 |
| 20260906041546 | 88 | 151 | 7.8 | 11.3 | 0.00 | 0.00 | 0.00 | 43 | 1013.8 |
| 20260906040113 | 89 | 140 | 7.0 | 11.3 | 0.00 | 0.00 | 0.00 | 43 | 1013.7 |
| 20260906034550 | 89 | 146 | 7.8 | 12.2 | 0.00 | 0.00 | 0.00 | 42 | 1013.6 |
| 20260906033058 | 90 | 150 | 8.7 | 12.2 | 0.00 | 0.00 | 0.00 | 42 | 1013.6 |
| 20260906031603 | 90 | 141 | 8.7 | 13.0 | 0.00 | 0.00 | 0.00 | 41 | 1013.3 |
| 20260906030104 | 90 | 135 | 8.7 | 11.3 | 0.00 | 0.00 | 0.00 | 41 | 1013.0 |
| 20260906024558 | 91 | 146 | 9.6 | 13.0 | 0.00 | 0.00 | 0.00 | 40 | 1012.7 |
| 20260906023122 | 91 | 136 | 8.7 | 11.3 | 0.00 | 0.00 | 0.00 | 39 | 1012.5 |
| 20260906021555 | 92 | 140 | 7.8 | 11.3 | 0.00 | 0.00 | 0.00 | 39 | 1012.3 |
| 20260906020053 | 92 | 118 | 7.8 | 11.3 | 0.00 | 0.00 | 0.00 | 38 | 1012.1 |
| 20260906014623 | 92 | 126 | 7.0 | 10.4 | 0.00 | 0.00 | 0.00 | 37 | 1011.8 |
| 20260906013059 | 93 | 140 | 6.1 | 9.6 | 0.00 | 0.00 | 0.00 | 36 | 1011.6 |
| 20260906011559 | 95 | 134 | 7.0 | 13.9 | 0.00 | 0.00 | 0.00 | 35 | 1011.4 |
| 20260906010053 | 95 | 134 | 7.8 | 11.3 | 0.00 | 0.00 | 0.00 | 35 | 1011.3 |
| 20260906004608 | 96 | 138 | 9.6 | 13.9 | 0.00 | 0.00 | 0.00 | 34 | 1011.2 |
| 20260906003056 | 97 | 151 | 8.7 | 13.0 | 0.00 | 0.00 | 0.00 | 34 | 1011.1 |
| 20260906001553 | 98 | 154 | 10.4 | 14.8 | 0.00 | 0.00 | 0.00 | 32 | 1011.0 |
| 20260906000056 | 99 | 143 | 10.4 | 14.8 | 0.00 | 0.00 | 0.00 | 31 | 1011.0 |
| 20260905234602 | 100 | 130 | 8.7 | 14.8 | 0.00 | 0.00 | 0.00 | 31 | 1010.7 |
| 20260905233057 | 100 | 138 | 8.7 | 13.9 | 0.00 | 0.00 | 0.00 | 31 | 1010.6 |
| 20260905231554 | 100 | 119 | 7.8 | 13.9 | 0.00 | 0.00 | 0.00 | 31 | 1010.5 |
| 20260905230101 | 101 | 158 | 7.8 | 13.9 | 0.00 | 0.00 | 0.00 | 30 | 1010.6 |
| 20260905224605 | 101 | 145 | 9.6 | 15.6 | 0.00 | 0.00 | 0.00 | 30 | 1010.7 |
| 20260905223053 | 102 | 138 | 7.8 | 13.9 | 0.00 | 0.00 | 0.00 | 29 | 1010.8 |
| 20260905221549 | 102 | 152 | 7.0 | 13.9 | 0.00 | 0.00 | 0.00 | 29 | 1010.8 |
| 20260905220106 | 102 | 164 | 4.3 | 15.6 | 0.00 | 0.00 | 0.00 | 30 | 1010.8 |